CDT,Max TemperatureF,Mean TemperatureF,Min TemperatureF,Max Dew PointF,MeanDew PointF,Min DewpointF,Max Humidity, Mean Humidity, Min Humidity, Max Sea Level PressureIn, Mean Sea Level PressureIn, Min Sea Level PressureIn, Max VisibilityMiles, Mean VisibilityMiles, Min VisibilityMiles, Max Wind SpeedMPH, Mean Wind SpeedMPH, Max Gust SpeedMPH,PrecipitationIn, CloudCover, Events, WindDirDegrees
2012-10-1,71,60,50,48,36,27,67,43,21,29.99,29.95,29.89,10,10,10,26,12,37,0.00,1,,323
2012-10-2,73,53,33,37,29,21,75,41,14,29.99,29.91,29.83,10,10,7,12,5,17,0.00,0,,188
2012-10-3,78,60,41,34,29,21,65,34,12,29.89,29.84,29.77,10,10,10,21,7,28,0.00,0,,167
2012-10-4,64,52,39,41,32,27,81,59,32,30.24,30.08,29.78,10,10,7,38,21,45,0.00,6,,283
2012-10-5,48,38,28,27,21,12,86,53,24,30.23,30.20,30.17,10,10,10,25,14,32,0.00,1,,294
2012-10-6,44,34,24,28,24,18,81,63,39,30.30,30.25,30.21,10,10,10,20,13,25,0.00,5,,314
2012-10-7,55,36,17,23,19,16,93,53,21,30.25,30.06,29.86,10,10,10,17,5,26,0.00,0,,208
2012-10-8,69,54,39,45,31,23,82,47,18,29.86,29.74,29.62,10,10,10,31,12,36,0.00,3,Rain,219
2012-10-9,48,40,32,46,34,25,93,69,43,30.04,29.87,29.75,10,10,10,25,8,34,0.01,6,Rain,283
2012-10-10,57,42,26,30,25,18,93,52,21,30.13,30.02,29.86,10,10,10,18,8,24,0.00,2,,235
2012-10-11,53,40,28,34,26,18,70,51,34,30.38,30.11,29.84,10,10,10,22,15,28,0.00,0,,325
2012-10-12,55,37,19,27,17,10,86,47,18,30.40,30.25,29.96,10,10,10,20,6,26,0.00,2,,137
2012-10-13,62,54,46,55,49,39,94,86,62,29.94,29.74,29.65,10,7,0,18,11,29,0.00,7,Thunderstorm,200
2012-10-14,60,48,35,48,38,30,100,72,36,29.93,29.82,29.71,10,8,0,24,13,32,0.00,3,Fog,318
2012-10-15,68,48,28,43,34,25,93,60,28,29.96,29.87,29.70,10,10,7,16,6,21,0.00,0,,178
2012-10-16,73,62,51,46,43,41,76,56,31,29.69,29.49,29.35,10,10,7,14,8,22,0.00,0,,160
2012-10-17,64,54,42,50,42,36,87,66,45,29.39,29.29,29.16,10,10,10,33,15,50,0.00,6,Rain,247
2012-10-18,46,42,39,45,41,37,100,92,87,29.41,29.29,29.19,10,6,2,28,20,37,0.12,8,Rain,296
2012-10-19,42,42,41,41,41,39,100,93,87,29.76,29.62,29.41,10,7,1,29,21,34,0.03,8,Rain,315
2012-10-20,55,47,39,45,42,37,100,86,63,29.80,29.76,29.72,10,10,10,13,5,17,0.00,5,,179
2012-10-21,68,56,44,50,45,41,93,75,46,29.90,29.78,29.70,10,10,7,20,12,28,0.00,0,,228
2012-10-22,59,52,44,54,47,43,100,82,67,29.91,29.86,29.79,10,9,5,15,10,18,0.00,6,,22
2012-10-23,60,56,53,59,55,52,100,93,88,29.79,29.72,29.68,10,4,0,16,7,,0.00,7,Rain-Thunderstorm,168
2012-10-24,57,49,41,54,47,39,100,91,81,29.87,29.81,29.78,10,7,2,28,10,32,0.00,8,Rain,338
2012-10-25,41,36,32,39,32,27,100,87,70,30.22,29.94,29.73,10,7,1,34,24,43,0.27,8,Rain-Snow-Thunderstorm,315
2012-10-26,37,34,32,28,25,23,75,68,56,30.40,30.34,30.24,10,10,10,24,13,31,0.00,8,,280
2012-10-27,39,30,21,25,22,19,100,68,45,30.35,30.31,30.26,10,10,10,9,5,,0.00,1,,184
2012-10-28,48,39,30,30,28,25,86,66,46,30.28,30.24,30.19,10,10,10,15,8,20,0.00,5,,158
2012-10-29,53,44,33,30,27,25,81,58,38,30.23,30.18,30.15,10,10,10,20,12,25,0.00,3,,136
2012-10-30,46,37,28,30,27,25,93,69,43,30.17,30.12,30.05,10,10,10,10,5,,0.00,4,,60
2012-10-31,57,42,28,36,27,18,86,58,28,30.07,30.00,29.93,10,10,10,9,3,,0.00,3,,261